| time (UTC) | temp F | wind direction | speed MPH | gust MPH | rain 1hr in | rain 24hr in | rain mn in | humidity % | barometer mb |
| 20260504043059 | 50 | 94 | 4.0 | 9.0 | 0.00 | 0.03 | 0.00 | 72 | 1012.5 |
| 20260504042600 | 50 | 109 | 4.0 | 9.0 | 0.00 | 0.03 | 0.00 | 72 | 1012.5 |
| 20260504042056 | 50 | 102 | 4.0 | 9.0 | 0.00 | 0.03 | 0.00 | 71 | 1012.6 |
| 20260504041559 | 50 | 111 | 4.0 | 8.0 | 0.00 | 0.03 | 0.00 | 71 | 1012.6 |
| 20260504041056 | 50 | 109 | 3.0 | 7.0 | 0.00 | 0.03 | 0.00 | 71 | 1012.6 |
| 20260504040556 | 50 | 99 | 3.0 | 7.0 | 0.00 | 0.03 | 0.00 | 70 | 1012.8 |
| 20260504040116 | 50 | 89 | 2.0 | 8.0 | 0.00 | 0.03 | 0.00 | 70 | 1012.7 |
| 20260504035556 | 50 | 110 | 3.0 | 8.0 | 0.00 | 0.03 | 0.03 | 70 | 1012.8 |
| 20260504035103 | 50 | 102 | 4.0 | 10.0 | 0.00 | 0.03 | 0.03 | 70 | 1012.8 |
| 20260504034634 | 50 | 113 | 3.0 | 10.0 | 0.00 | 0.03 | 0.03 | 71 | 1012.8 |
| 20260504034103 | 50 | 96 | 5.0 | 10.0 | 0.00 | 0.03 | 0.03 | 71 | 1013.0 |
| 20260504033557 | 50 | 103 | 4.0 | 10.0 | 0.00 | 0.03 | 0.03 | 71 | 1012.9 |
| 20260504033100 | 50 | 96 | 4.0 | 10.0 | 0.00 | 0.03 | 0.03 | 72 | 1013.0 |
| 20260504032557 | 49 | 105 | 5.0 | 9.0 | 0.00 | 0.03 | 0.03 | 72 | 1013.1 |
| 20260504032059 | 49 | 102 | 4.0 | 9.0 | 0.00 | 0.03 | 0.03 | 72 | 1013.0 |
| 20260504031558 | 49 | 110 | 4.0 | 9.0 | 0.00 | 0.03 | 0.03 | 72 | 1013.2 |
| 20260504031057 | 49 | 106 | 4.0 | 8.0 | 0.00 | 0.03 | 0.03 | 73 | 1013.2 |
| 20260504030556 | 49 | 97 | 5.0 | 8.0 | 0.00 | 0.03 | 0.03 | 73 | 1013.2 |
| 20260504030120 | 49 | 107 | 4.0 | 8.0 | 0.00 | 0.03 | 0.03 | 74 | 1013.1 |
| 20260504025556 | 49 | 107 | 3.0 | 9.0 | 0.00 | 0.03 | 0.03 | 74 | 1013.1 |
| 20260504025057 | 49 | 107 | 4.0 | 9.0 | 0.00 | 0.03 | 0.03 | 74 | 1013.3 |
| 20260504024602 | 49 | 100 | 3.0 | 8.0 | 0.00 | 0.03 | 0.03 | 73 | 1013.3 |
| 20260504024056 | 49 | 109 | 3.0 | 7.0 | 0.00 | 0.03 | 0.03 | 73 | 1013.2 |
| 20260504023557 | 49 | 86 | 3.0 | 9.0 | 0.00 | 0.03 | 0.03 | 73 | 1013.2 |
| 20260504023100 | 49 | 98 | 3.0 | 9.0 | 0.00 | 0.03 | 0.03 | 74 | 1013.2 |
| 20260504022557 | 49 | 82 | 2.0 | 9.0 | 0.00 | 0.03 | 0.03 | 75 | 1013.3 |
| 20260504022056 | 49 | 103 | 2.0 | 9.0 | 0.00 | 0.03 | 0.03 | 75 | 1013.3 |
| 20260504021559 | 48 | 99 | 2.0 | 6.0 | 0.00 | 0.03 | 0.03 | 76 | 1013.3 |
| 20260504021059 | 48 | 74 | 1.0 | 7.0 | 0.00 | 0.03 | 0.03 | 76 | 1013.4 |
| 20260504020559 | 48 | 98 | 2.0 | 7.0 | 0.01 | 0.03 | 0.03 | 77 | 1013.4 |
| 20260504020107 | 48 | 98 | 3.0 | 8.0 | 0.01 | 0.03 | 0.03 | 79 | 1013.4 |
| 20260504015557 | 48 | 90 | 3.0 | 8.0 | 0.02 | 0.03 | 0.03 | 80 | 1013.5 |
| 20260504015100 | 47 | 108 | 2.0 | 4.0 | 0.02 | 0.03 | 0.03 | 80 | 1013.5 |
| 20260504014608 | 47 | 105 | 2.0 | 4.0 | 0.03 | 0.03 | 0.03 | 81 | 1013.4 |
| 20260504014056 | 47 | 101 | 2.0 | 6.0 | 0.03 | 0.03 | 0.03 | 81 | 1013.3 |
| 20260504013556 | 47 | 98 | 1.0 | 6.0 | 0.03 | 0.03 | 0.03 | 81 | 1013.5 |
| 20260504013058 | 47 | 104 | 2.0 | 6.0 | 0.03 | 0.03 | 0.03 | 81 | 1013.4 |
| 20260504012556 | 47 | 107 | 1.0 | 4.0 | 0.03 | 0.03 | 0.03 | 81 | 1013.3 |
| 20260504012057 | 47 | 0 | 0.0 | 2.0 | 0.03 | 0.03 | 0.03 | 81 | 1013.4 |
| 20260504011557 | 48 | 0 | 0.0 | 2.0 | 0.03 | 0.03 | 0.03 | 80 | 1013.4 |
| 20260504011056 | 48 | 0 | 0.0 | 6.0 | 0.03 | 0.03 | 0.03 | 79 | 1013.5 |
| 20260504010556 | 48 | 0 | 1.0 | 6.0 | 0.02 | 0.02 | 0.02 | 78 | 1013.3 |
| 20260504010059 | 48 | 170 | 0.0 | 8.0 | 0.02 | 0.02 | 0.02 | 77 | 1013.3 |
| 20260504005557 | 49 | 177 | 2.0 | 8.0 | 0.01 | 0.01 | 0.01 | 76 | 1013.4 |
| 20260504005105 | 49 | 150 | 2.0 | 6.0 | 0.01 | 0.01 | 0.01 | 74 | 1013.7 |
| 20260504004604 | 49 | 0 | 2.0 | 5.0 | 0.00 | 0.00 | 0.00 | 73 | 1013.9 |
| 20260504004057 | 49 | 206 | 2.0 | 4.0 | 0.00 | 0.00 | 0.00 | 72 | 1013.9 |
| 20260504003601 | 49 | 179 | 1.0 | 4.0 | 0.00 | 0.00 | 0.00 | 72 | 1013.8 |
| 20260504003105 | 49 | 167 | 0.0 | 4.0 | 0.00 | 0.00 | 0.00 | 71 | 1013.7 |
| 20260504002559 | 49 | 158 | 0.0 | 7.0 | 0.00 | 0.00 | 0.00 | 72 | 1013.7 |
| 20260504002056 | 50 | 153 | 3.0 | 7.0 | 0.00 | 0.00 | 0.00 | 72 | 1013.5 |
| 20260504001606 | 50 | 109 | 2.0 | 4.0 | 0.00 | 0.00 | 0.00 | 72 | 1013.6 |
| 20260504001056 | 50 | 0 | 0.0 | 2.0 | 0.00 | 0.00 | 0.00 | 72 | 1013.7 |
| 20260504000556 | 50 | 59 | 0.0 | 2.0 | 0.00 | 0.00 | 0.00 | 72 | 1013.6 |
| 20260504000100 | 50 | 0 | 0.0 | 3.0 | 0.00 | 0.00 | 0.00 | 72 | 1013.5 |
| 20260503235558 | 50 | 0 | 1.0 | 3.0 | 0.00 | 0.00 | 0.00 | 72 | 1013.5 |
| 20260503235058 | 50 | 59 | 1.0 | 3.0 | 0.00 | 0.00 | 0.00 | 71 | 1013.6 |
| 20260503234559 | 50 | 0 | 0.0 | 2.0 | 0.00 | 0.00 | 0.00 | 71 | 1013.7 |
| 20260503234057 | 50 | 0 | 0.0 | 1.0 | 0.00 | 0.00 | 0.00 | 70 | 1013.8 |
| 20260503233557 | 50 | 0 | 0.0 | 1.0 | 0.00 | 0.00 | 0.00 | 70 | 1013.6 |
| 20260503233103 | 50 | 0 | 0.0 | 2.0 | 0.00 | 0.00 | 0.00 | 71 | 1013.8 |
| 20260503232601 | 50 | 0 | 0.0 | 3.0 | 0.00 | 0.00 | 0.00 | 71 | 1013.9 |
| 20260503232059 | 50 | 238 | 0.0 | 3.0 | 0.00 | 0.00 | 0.00 | 70 | 1013.8 |
| 20260503231559 | 50 | 0 | 0.0 | 2.0 | 0.00 | 0.00 | 0.00 | 69 | 1014.1 |
| 20260503231057 | 50 | 0 | 0.0 | 8.0 | 0.00 | 0.00 | 0.00 | 69 | 1014.2 |
| 20260503230556 | 50 | 240 | 0.0 | 9.0 | 0.00 | 0.00 | 0.00 | 71 | 1014.6 |
| 20260503225610 | 50 | 235 | 3.0 | 11.0 | 0.00 | 0.00 | 0.00 | 70 | 1015.2 |
| 20260503225100 | 51 | 269 | 4.0 | 17.0 | 0.00 | 0.00 | 0.00 | 69 | 1015.5 |
| 20260503224559 | 51 | 268 | 6.0 | 18.0 | 0.00 | 0.00 | 0.00 | 67 | 1015.4 |
| 20260503224058 | 52 | 232 | 9.0 | 19.0 | 0.00 | 0.00 | 0.00 | 64 | 1015.4 |
| 20260503223557 | 52 | 276 | 10.0 | 22.0 | 0.00 | 0.00 | 0.00 | 62 | 1015.3 |
| 20260503223058 | 53 | 244 | 10.0 | 24.0 | 0.00 | 0.00 | 0.00 | 60 | 1015.2 |
| 20260503222559 | 53 | 263 | 10.0 | 24.0 | 0.00 | 0.00 | 0.00 | 60 | 1015.1 |
| 20260503222100 | 54 | 260 | 12.0 | 24.0 | 0.00 | 0.00 | 0.00 | 58 | 1015.0 |
| 20260503221603 | 54 | 277 | 12.0 | 24.0 | 0.00 | 0.00 | 0.00 | 57 | 1015.0 |
| 20260503221058 | 55 | 241 | 12.0 | 24.0 | 0.00 | 0.00 | 0.00 | 54 | 1014.9 |
| 20260503220558 | 56 | 269 | 11.0 | 24.0 | 0.00 | 0.00 | 0.00 | 52 | 1014.7 |
| 20260503220100 | 56 | 219 | 13.0 | 24.0 | 0.00 | 0.00 | 0.00 | 51 | 1014.5 |
| 20260503215556 | 57 | 233 | 11.0 | 23.0 | 0.00 | 0.00 | 0.00 | 51 | 1014.4 |
| 20260503215057 | 57 | 261 | 13.0 | 22.0 | 0.00 | 0.00 | 0.00 | 48 | 1014.4 |
| 20260503214604 | 58 | 238 | 9.0 | 19.0 | 0.00 | 0.00 | 0.00 | 46 | 1014.3 |
| 20260503214057 | 58 | 219 | 8.0 | 19.0 | 0.00 | 0.00 | 0.00 | 46 | 1014.3 |
| 20260503213556 | 58 | 214 | 8.0 | 19.0 | 0.00 | 0.00 | 0.00 | 46 | 1014.3 |
| 20260503213103 | 58 | 219 | 10.0 | 21.0 | 0.00 | 0.00 | 0.00 | 46 | 1014.5 |
| 20260503212557 | 58 | 234 | 10.0 | 21.0 | 0.00 | 0.00 | 0.00 | 46 | 1014.4 |
| 20260503212059 | 58 | 228 | 9.0 | 17.0 | 0.00 | 0.00 | 0.00 | 46 | 1014.4 |
| 20260503211602 | 59 | 288 | 8.0 | 17.0 | 0.00 | 0.00 | 0.00 | 47 | 1014.5 |
| 20260503211058 | 59 | 223 | 8.0 | 17.0 | 0.00 | 0.00 | 0.00 | 46 | 1014.5 |
| 20260503210559 | 59 | 270 | 6.0 | 17.0 | 0.00 | 0.00 | 0.00 | 47 | 1014.6 |
| 20260503210101 | 59 | 257 | 8.0 | 16.0 | 0.00 | 0.00 | 0.00 | 45 | 1014.5 |
| 20260503205556 | 59 | 256 | 8.0 | 17.0 | 0.00 | 0.00 | 0.00 | 47 | 1014.6 |
| 20260503205057 | 59 | 213 | 10.0 | 17.0 | 0.00 | 0.00 | 0.00 | 46 | 1014.7 |
| 20260503204605 | 59 | 263 | 7.0 | 18.0 | 0.00 | 0.00 | 0.00 | 46 | 1014.6 |
| 20260503204057 | 59 | 225 | 8.0 | 23.0 | 0.00 | 0.00 | 0.00 | 44 | 1014.7 |
| 20260503203556 | 59 | 233 | 7.0 | 23.0 | 0.00 | 0.00 | 0.00 | 44 | 1014.7 |
| 20260503203103 | 60 | 279 | 10.0 | 23.0 | 0.00 | 0.00 | 0.00 | 44 | 1014.7 |
| 20260503202557 | 60 | 209 | 12.0 | 20.0 | 0.00 | 0.00 | 0.00 | 43 | 1014.8 |
| 20260503202059 | 61 | 244 | 7.0 | 21.0 | 0.00 | 0.00 | 0.00 | 46 | 1014.8 |
| 20260503201558 | 61 | 277 | 7.0 | 21.0 | 0.00 | 0.00 | 0.00 | 45 | 1015.0 |
| 20260503201056 | 61 | 246 | 8.0 | 21.0 | 0.00 | 0.00 | 0.00 | 47 | 1014.9 |
| 20260503200558 | 61 | 251 | 7.0 | 18.0 | 0.00 | 0.00 | 0.00 | 47 | 1014.9 |
| 20260503200058 | 61 | 226 | 8.0 | 22.0 | 0.00 | 0.00 | 0.00 | 46 | 1015.0 |
| 20260503195557 | 60 | 188 | 11.0 | 22.0 | 0.00 | 0.00 | 0.00 | 45 | 1015.0 |
| 20260503195059 | 61 | 231 | 7.0 | 21.0 | 0.00 | 0.00 | 0.00 | 46 | 1015.0 |
| 20260503194600 | 61 | 225 | 11.0 | 21.0 | 0.00 | 0.00 | 0.00 | 45 | 1015.2 |
| 20260503194058 | 61 | 239 | 10.0 | 18.0 | 0.00 | 0.00 | 0.00 | 46 | 1015.1 |
| 20260503193601 | 61 | 278 | 8.0 | 20.0 | 0.00 | 0.00 | 0.00 | 46 | 1015.4 |
| 20260503193111 | 60 | 263 | 11.0 | 20.0 | 0.00 | 0.00 | 0.00 | 46 | 1015.5 |
| 20260503192600 | 60 | 227 | 7.0 | 17.0 | 0.00 | 0.00 | 0.00 | 45 | 1015.5 |
| 20260503192101 | 61 | 259 | 9.0 | 17.0 | 0.00 | 0.00 | 0.00 | 46 | 1015.6 |
| 20260503191600 | 60 | 210 | 7.0 | 20.0 | 0.00 | 0.00 | 0.00 | 46 | 1015.7 |
| 20260503191103 | 60 | 315 | 7.0 | 20.0 | 0.00 | 0.00 | 0.00 | 46 | 1015.8 |
| 20260503190601 | 60 | 219 | 8.0 | 19.0 | 0.00 | 0.00 | 0.00 | 45 | 1015.8 |
| 20260503190108 | 60 | 228 | 8.0 | 19.0 | 0.00 | 0.00 | 0.00 | 45 | 1016.0 |
| 20260503185600 | 60 | 244 | 10.0 | 19.0 | 0.00 | 0.00 | 0.00 | 44 | 1016.1 |
| 20260503185100 | 60 | 279 | 8.0 | 18.0 | 0.00 | 0.00 | 0.00 | 46 | 1016.1 |
| 20260503184603 | 60 | 250 | 9.0 | 18.0 | 0.00 | 0.00 | 0.00 | 47 | 1016.2 |
| 20260503184101 | 59 | 266 | 7.0 | 19.0 | 0.00 | 0.00 | 0.00 | 46 | 1016.3 |
| 20260503183600 | 59 | 261 | 10.0 | 20.0 | 0.00 | 0.00 | 0.00 | 46 | 1016.3 |
| 20260503183114 | 59 | 179 | 9.0 | 20.0 | 0.00 | 0.00 | 0.00 | 45 | 1016.5 |
| 20260503182601 | 59 | 220 | 11.0 | 19.0 | 0.00 | 0.00 | 0.00 | 44 | 1016.5 |
| 20260503182104 | 60 | 209 | 9.0 | 19.0 | 0.00 | 0.00 | 0.00 | 47 | 1016.7 |
| 20260503181559 | 59 | 224 | 7.0 | 18.0 | 0.00 | 0.00 | 0.00 | 47 | 1016.8 |
| 20260503181101 | 59 | 254 | 9.0 | 20.0 | 0.00 | 0.00 | 0.00 | 46 | 1016.8 |
| 20260503180601 | 59 | 244 | 10.0 | 20.0 | 0.00 | 0.00 | 0.00 | 48 | 1017.0 |
| 20260503180100 | 59 | 192 | 8.0 | 20.0 | 0.00 | 0.00 | 0.00 | 46 | 1017.0 |
| 20260503175559 | 58 | 257 | 8.0 | 21.0 | 0.00 | 0.00 | 0.00 | 47 | 1017.0 |
| 20260503175101 | 59 | 196 | 10.0 | 21.0 | 0.00 | 0.00 | 0.00 | 45 | 1017.2 |
| 20260503174600 | 59 | 213 | 9.0 | 17.0 | 0.00 | 0.00 | 0.00 | 47 | 1017.3 |
| 20260503174102 | 59 | 210 | 8.0 | 20.0 | 0.00 | 0.00 | 0.00 | 49 | 1017.3 |
| 20260503173604 | 59 | 265 | 7.0 | 20.0 | 0.00 | 0.00 | 0.00 | 48 | 1017.5 |
| 20260503173115 | 59 | 259 | 8.0 | 20.0 | 0.00 | 0.00 | 0.00 | 48 | 1017.4 |
| 20260503172600 | 58 | 226 | 7.0 | 18.0 | 0.00 | 0.00 | 0.00 | 49 | 1017.3 |
| 20260503172101 | 59 | 263 | 8.0 | 18.0 | 0.00 | 0.00 | 0.00 | 47 | 1017.5 |
| 20260503171601 | 59 | 254 | 8.0 | 18.0 | 0.00 | 0.00 | 0.00 | 49 | 1017.5 |
| 20260503171101 | 58 | 221 | 10.0 | 17.0 | 0.00 | 0.00 | 0.00 | 48 | 1017.5 |
| 20260503170603 | 58 | 273 | 7.0 | 17.0 | 0.00 | 0.00 | 0.00 | 46 | 1017.6 |
| 20260503150556 | 55 | 244 | 8.0 | 18.0 | 0.00 | 0.00 | 0.00 | 53 | 1018.4 |
| 20260503150112 | 54 | 271 | 10.0 | 17.0 | 0.00 | 0.00 | 0.00 | 56 | 1018.3 |
| 20260503140118 | 51 | 257 | 9.0 | 18.0 | 0.00 | 0.00 | 0.00 | 60 | 1018.5 |
| 20260503131056 | 47 | 249 | 7.0 | 15.0 | 0.00 | 0.00 | 0.00 | 64 | 1018.7 |
| 20260503130556 | 46 | 260 | 7.0 | 16.0 | 0.00 | 0.00 | 0.00 | 64 | 1018.7 |
| 20260503130109 | 46 | 248 | 8.0 | 16.0 | 0.00 | 0.00 | 0.00 | 64 | 1018.8 |
| 20260503110600 | 35 | 221 | 2.0 | 7.0 | 0.00 | 0.00 | 0.00 | 79 | 1018.0 |
| 20260503110115 | 35 | 246 | 2.0 | 7.0 | 0.00 | 0.00 | 0.00 | 79 | 1018.0 |
| 20260503100108 | 34 | 245 | 3.0 | 7.0 | 0.00 | 0.00 | 0.00 | 79 | 1017.5 |
| 20260503081620 | 34 | 261 | 1.0 | 4.0 | 0.00 | 0.00 | 0.00 | 77 | 1017.3 |
| 20260503081100 | 34 | 0 | 1.0 | 4.0 | 0.00 | 0.00 | 0.00 | 77 | 1017.4 |
| 20260503080559 | 34 | 263 | 1.0 | 4.0 | 0.00 | 0.00 | 0.00 | 77 | 1017.3 |
| 20260503080104 | 34 | 259 | 1.0 | 3.0 | 0.00 | 0.00 | 0.00 | 77 | 1017.3 |
| 20260503072600 | 35 | 244 | 1.0 | 5.0 | 0.00 | 0.00 | 0.00 | 77 | 1017.2 |
| 20260503072103 | 35 | 240 | 2.0 | 5.0 | 0.00 | 0.00 | 0.00 | 77 | 1017.2 |
| 20260503071609 | 35 | 0 | 0.0 | 4.0 | 0.00 | 0.00 | 0.00 | 76 | 1017.2 |
| 20260503071059 | 35 | 248 | 0.0 | 3.0 | 0.00 | 0.00 | 0.00 | 76 | 1017.3 |
| 20260503070600 | 35 | 251 | 0.0 | 5.0 | 0.00 | 0.00 | 0.00 | 75 | 1017.4 |
| 20260503060114 | 36 | 242 | 1.0 | 4.0 | 0.00 | 0.00 | 0.00 | 74 | 1017.7 |
| 20260503055057 | 36 | 0 | 0.0 | 0.0 | 0.00 | 0.00 | 0.00 | 74 | 1017.7 |
| 20260503054600 | 36 | 0 | 0.0 | 0.0 | 0.00 | 0.00 | 0.00 | 74 | 1017.7 |
| 20260503054057 | 36 | 0 | 0.0 | 0.0 | 0.00 | 0.00 | 0.00 | 74 | 1017.9 |
| 20260503053600 | 36 | 0 | 0.0 | 0.0 | 0.00 | 0.00 | 0.00 | 74 | 1017.8 |
| 20260503053107 | 36 | 0 | 0.0 | 0.0 | 0.00 | 0.00 | 0.00 | 74 | 1017.8 |
| 20260503052600 | 36 | 0 | 0.0 | 3.0 | 0.00 | 0.00 | 0.00 | 74 | 1017.9 |
| 20260503052101 | 36 | 0 | 0.0 | 3.0 | 0.00 | 0.00 | 0.00 | 74 | 1017.9 |
| 20260503051609 | 36 | 277 | 1.0 | 3.0 | 0.00 | 0.00 | 0.00 | 75 | 1017.9 |
| 20260503051100 | 36 | 279 | 1.0 | 3.0 | 0.00 | 0.00 | 0.00 | 74 | 1017.9 |
| 20260503050601 | 36 | 0 | 0.0 | 2.0 | 0.00 | 0.00 | 0.00 | 74 | 1017.8 |
| 20260503050111 | 36 | 0 | 0.0 | 2.0 | 0.00 | 0.00 | 0.00 | 74 | 1017.9 |
| 20260503045603 | 36 | 0 | 0.0 | 2.0 | 0.00 | 0.00 | 0.00 | 74 | 1017.8 |
| 20260503045057 | 36 | 0 | 0.0 | 2.0 | 0.00 | 0.00 | 0.00 | 74 | 1017.9 |
| 20260503044607 | 36 | 0 | 0.0 | 3.0 | 0.00 | 0.00 | 0.00 | 74 | 1017.9 |
| 20260503044103 | 36 | 280 | 1.0 | 3.0 | 0.00 | 0.00 | 0.00 | 74 | 1017.8 |
| 20260503043601 | 37 | 279 | 1.0 | 3.0 | 0.00 | 0.00 | 0.00 | 74 | 1017.8 |